Regional Weather Roundup
Issued by NWS

Home | Current Version | Previous Version | Graphics & Text | Print | Product List | Glossary On
Versions: 1 2 3 4 5 6 7 8 9 10 11 12 13 14 15 16 17 18 19 20 21 22 23 24 25 26 27 28 29 30 31 32 33 34 35 36 37 38 39 40 41 42 43 44 45 46 47 48 49 50
000
ASUS43 KOAX 310902
RWRNE

WEATHER ROUNDUP FOR NEBRASKA
NATIONAL WEATHER SERVICE OMAHA NE
400 AM CDT TUE MAY 31 2016

NOTES: SATELLITE DATA IS BEING USED TO AUGMENT CLOUD COVER ABOVE
       12000 FEET.
       "FAIR" INDICATES FEW OR NO CLOUDS BELOW 12,000 FEET WITH NO
       SIGNIFICANT WEATHER AND/OR OBSTRUCTIONS TO VISIBILITY.

  * THESE STATIONS DO NOT REPORT WEATHER SUCH AS RAIN...SNOW OR FOG.

NEZ001>004-019>022-054>056-311000-
NEBRASKA PANHANDLE

CITY           SKY/WX    TMP DP  RH WIND       PRES   REMARKS
SCOTTSBLUFF    CLOUDY    50  43  77 W5        30.10F
ALLIANCE       MOCLDY    50  48  93 NW7       30.06F
CHADRON        CLOUDY    50  44  80 W6        30.06S
SIDNEY         CLEAR     49  47  93 N12       30.08R
$$

NEZ057>060-069>072-079>082-311000-
SOUTHWEST NEBRASKA

CITY           SKY/WX    TMP DP  RH WIND       PRES   REMARKS
NORTH PLATTE   CLOUDY    53  50  89 NW7       30.00R
IMPERIAL       CLOUDY    56  50  80 N15       30.02F
LEXINGTON      CLOUDY    57  54  88 N5        29.97S
MCCOOK         CLOUDY    57  53  86 N12       29.98S
$$

NEZ005>010-023>029-035>040-094-311000-
NORTH CENTRAL NEBRASKA

CITY           SKY/WX    TMP DP  RH WIND       PRES   REMARKS
VALENTINE      CLEAR     50  45  83 W3        30.00R
AINSWORTH      CLOUDY    53  48  84 W7        29.99R
BROKEN BOW     CLOUDY    57  53  86 N12       29.95R
ORD            CLOUDY    60  54  80 N12       29.93R
$$

NEZ041-046>049-061>064-073>077-083>087-311000-
SOUTH CENTRAL NEBRASKA

CITY           SKY/WX    TMP DP  RH WIND       PRES   REMARKS
GRAND ISLAND   CLOUDY    61  59  93 NW3       29.92R
HASTINGS       CLOUDY    58  57  97 MISG      29.92F
KEARNEY *      CLOUDY    59  55  88 NW7       29.94S
YORK           LGT RAIN  61  59  94 NW5       29.91R
$$

NEZ011>018-030>034-042>045-311000-
NORTHEAST NEBRASKA

CITY           SKY/WX    TMP DP  RH WIND       PRES   REMARKS
NORFOLK        LGT RAIN  60  58  92 S5        29.91R
BLAIR          CLOUDY    66  62  85 CALM      29.85F
FREMONT        MOCLDY    65  59  80 NW6       29.86S
TEKAMAH        CLOUDY    64  58  80 N14       29.86S
$$

NEZ050>053-065>068-078-088>093-311000-
SOUTHEAST NEBRASKA

CITY           SKY/WX    TMP DP  RH WIND       PRES   REMARKS
LINCOLN        CLOUDY    67  56  67 W5        29.87F
OMAHA EPPLEY   CLOUDY    68  61  78 S9        29.86F
FALLS CITY     LGT RAIN  65  61  87 SW10      29.90F
PLATTSMOUTH    PTCLDY    67  64  90 S8        29.87F
$$

NEZ044-045-051>053-067-311000-
OMAHA AREA

CITY           SKY/WX    TMP DP  RH WIND       PRES   REMARKS
OMAHA EPPLEY   CLOUDY    68  61  78 S9        29.86F
BLAIR          CLOUDY    66  62  85 CALM      29.85F
FREMONT        MOCLDY    65  59  80 NW6       29.86S
PLATTSMOUTH    PTCLDY    67  64  90 S8        29.87F
$$




USA.gov is the U.S. government's official web portal to all federal, state and local government web resources and services.